Weather History for Kabul, Afghanistan

Change the Weather History Date:

Sunday, April 13, 2014

  Actual Average Record
Temperature  
Mean Temperature 55 °F -  
Max Temperature 64 °F 71 °F - ()
Min Temperature 46 °F 45 °F - ()
Degree Days  
Heating Degree Days 10    
Growing Degree Days 5 (Base 50)    
Moisture  
Dew Point 22 °F    
Average Humidity 29    
Maximum Humidity 50    
Minimum Humidity 19    
Precipitation  
Precipitation 0.00 in 0.07 in - ()
Sea Level Pressure  
Sea Level Pressure 30.15 in    
Wind  
Wind Speed 8 mph ()    
Max Wind Speed 18 mph    
Max Gust Speed -    
Visibility 6.2 miles    
Events      
T = Trace of Precipitation, MM = Missing Value Source: Averaged Metar Reports

Daily Weather History Graph

Daily Weather History Graph

Search for Another Location

Airport:

Trip Planner

Search our weather history database for the weather conditions in past years. The results will help you decide how hot, cold, wet, or windy it might be!

Date:

Astronomy

Apr. 13, 2014 Rise Set
Actual Time 5:24 AM AFT 6:23 PM AFT
Civil Twilight 4:58 AM AFT 6:49 PM AFT
Nautical Twilight 4:28 AM AFT 7:19 PM AFT
Astronomical Twilight 3:56 AM AFT 7:51 PM AFT
Moon 4:38 PM AFT (4/13) 4:04 AM AFT (4/13)
Length of Visible Light 13h 50m
Length of Day
12h 58m
Waxing Gibbous, 96% of the Moon is Illuminated
Apr 13
Waxing Gibbous
Apr 15
Full
Apr 22
Last Quarter
Apr 29
New
May 7
First Quarter

Hourly Weather History & Observations

Time (AFT) Temp. Windchill Dew Point Humidity Pressure Visibility Wind Dir Wind Speed Gust Speed Precip Events Conditions
12:20 AM 48.2 °F - 28.4 °F 46% 30.18 in 6.2 mi WNW 4.6 mph - N/A   Scattered Clouds
1:20 AM 46.4 °F 44.3 °F 28.4 °F 50% 30.15 in - NNW 4.6 mph - N/A   Clear
2:20 AM 48.2 °F - 26.6 °F 43% 30.12 in - NNW 10.4 mph - N/A   Clear
3:20 AM 50.0 °F - 21.2 °F 32% 30.12 in - North 17.3 mph - N/A   Clear
4:20 AM 46.4 °F 43.5 °F 21.2 °F 37% 30.12 in - North 5.8 mph - N/A   Clear
5:20 AM 46.4 °F 45.2 °F 23.0 °F 40% 30.15 in - SW 3.5 mph - N/A   Clear
6:20 AM 50.0 °F - 24.8 °F 37% 30.15 in - NW 4.6 mph - N/A   Clear
7:20 AM 53.6 °F - 24.8 °F 33% 30.18 in - West 5.8 mph - N/A   Clear
8:20 AM 55.4 °F - 24.8 °F 31% 30.18 in - North 8.1 mph - N/A   Clear
9:20 AM 55.4 °F - 24.8 °F 31% 30.18 in - NNE 6.9 mph - N/A   Clear
10:20 AM 59.0 °F - 21.2 °F 23% 30.18 in - East 6.9 mph - N/A   Clear
11:20 AM 60.8 °F - 19.4 °F 20% 30.18 in - NNE 5.8 mph - N/A   Clear
12:20 PM 60.8 °F - 21.2 °F 22% 30.18 in - North 5.8 mph - N/A   Clear
1:20 PM 62.6 °F - 21.2 °F 20% 30.15 in - NNW 9.2 mph - N/A   Clear
2:20 PM 62.6 °F - 21.2 °F 20% 30.15 in - North 9.2 mph - N/A   Clear
3:20 PM 64.4 °F - 23.0 °F 21% 30.09 in - North 17.3 mph - N/A   Clear
4:20 PM 62.6 °F - 19.4 °F 19% 30.09 in - North 13.8 mph - N/A   Clear
5:20 PM 60.8 °F - 17.6 °F 19% 30.09 in - North 15.0 mph - N/A   Clear
6:20 PM 59.0 °F - 17.6 °F 20% 30.12 in - North 13.8 mph - N/A   Clear
7:20 PM 57.2 °F - 17.6 °F 21% 30.12 in - North 15.0 mph - N/A   Clear
8:20 PM 55.4 °F - 17.6 °F 23% 30.15 in - North 17.3 mph - N/A   Clear
9:20 PM 55.4 °F - 19.4 °F 25% 30.15 in - North 18.4 mph - N/A   Clear
10:20 PM 53.6 °F - 19.4 °F 26% 30.18 in - North 9.2 mph - N/A   Clear
11:20 PM 51.8 °F - 21.2 °F 30% 30.18 in - SSW 5.8 mph - N/A   Clear